Weather History for Osijek - Cepin, Croatia

Change the Weather History Date:

Monday, November 12, 2012

  Actual Average Record
Temperature  
Mean Temperature 54 °F -  
Max Temperature 66 °F - - ()
Min Temperature 42 °F - - ()
Degree Days  
Heating Degree Days 11    
Growing Degree Days 4 (Base 50)    
Moisture  
Dew Point 45 °F    
Average Humidity 79    
Maximum Humidity 94    
Minimum Humidity 43    
Precipitation  
Precipitation 0.00 in - - ()
Sea Level Pressure  
Sea Level Pressure 30.18 in    
Wind  
Wind Speed 4 mph ()    
Max Wind Speed 9 mph    
Max Gust Speed -    
T = Trace of Precipitation, MM = Missing Value Source: Averaged Metar Reports

Daily Weather History Graph

Daily Weather History Graph

Search for Another Location

Airport:

Trip Planner

Search our weather history database for the weather conditions in past years. The results will help you decide how hot, cold, wet, or windy it might be!

Date:

Astronomy

Nov. 12, 2012 Rise Set
Actual Time 6:39 AM CET 4:17 PM CET
Civil Twilight 6:08 AM CET 4:49 PM CET
Nautical Twilight 5:32 AM CET 5:25 PM CET
Astronomical Twilight 4:57 AM CET 5:59 PM CET
Moon 4:39 AM CET (11/12) 3:11 PM CET (11/12)
Length of Visible Light 10h 41m
Length of Day
9h 37m
Waning Crescent, 3% of the Moon is Illuminated
Nov 12
Waning Crescent
Nov 13
New
Nov 20
First Quarter
Nov 28
Full
Dec 6
Last Quarter

Hourly Weather History & Observations

Time (CET) Temp. Windchill Dew Point Humidity Pressure Visibility Wind Dir Wind Speed Gust Speed Precip Events Conditions
12:00 AM 46.4 °F 42.4 °F 42.8 °F 87% 30.12 in - SSE 8.1 mph - N/A   Clear
12:30 AM 44.6 °F 39.7 °F 42.8 °F 93% 30.12 in - South 9.2 mph - N/A   Clear
1:00 AM 44.6 °F 40.2 °F 42.8 °F 93% 30.12 in - South 8.1 mph - N/A   Clear
1:30 AM 44.6 °F 41.4 °F 42.8 °F 93% 30.12 in - SSE 5.8 mph - N/A   Clear
2:00 AM 44.6 °F 41.4 °F 42.8 °F 93% 30.12 in - SSE 5.8 mph - N/A   Clear
2:30 AM 44.6 °F 39.7 °F 42.8 °F 93% 30.12 in - SSE 9.2 mph - N/A   Clear
3:00 AM 44.6 °F 39.7 °F 41.0 °F 87% 30.12 in - South 9.2 mph - N/A   Clear
3:30 AM 44.6 °F 41.4 °F 41.0 °F 87% 30.12 in - South 5.8 mph - N/A   Clear
4:00 AM 44.6 °F 40.2 °F 41.0 °F 87% 30.12 in - South 8.1 mph - N/A   Clear
4:30 AM 44.6 °F - 41.0 °F 87% 30.15 in - SE 2.3 mph - N/A   Clear
5:00 AM 44.6 °F - 41.0 °F 87% 30.15 in - Calm Calm - N/A   Clear
5:30 AM 44.6 °F 41.4 °F 41.0 °F 87% 30.15 in - SSE 5.8 mph - N/A   Clear
6:00 AM 44.6 °F 41.4 °F 41.0 °F 87% 30.15 in - East 5.8 mph - N/A   Clear
6:30 AM 42.8 °F 39.3 °F 41.0 °F 93% 30.15 in - ESE 5.8 mph - N/A   Clear
7:00 AM 42.8 °F 40.1 °F 39.2 °F 87% 30.15 in - East 4.6 mph - N/A   Clear
7:30 AM 42.8 °F 40.1 °F 39.2 °F 87% 30.18 in - ESE 4.6 mph - N/A   Clear
8:00 AM 42.8 °F - 41.0 °F 93% 30.18 in - Variable 2.3 mph - N/A   Clear
8:30 AM 42.8 °F 41.1 °F 41.0 °F 93% 30.18 in - SE 3.5 mph - N/A   Clear
9:00 AM 50.0 °F - 44.6 °F 82% 30.18 in - WSW 2.3 mph - N/A   Clear
9:30 AM 50.0 °F - 44.6 °F 82% 30.18 in - Calm Calm - N/A   Clear
10:00 AM 55.4 °F - 42.8 °F 63% 30.18 in - Calm Calm - N/A   Clear
10:30 AM 55.4 °F - 42.8 °F 63% 30.18 in - Calm Calm - N/A   Clear
11:00 AM 57.2 °F - 42.8 °F 59% 30.18 in - Calm Calm - N/A   Clear
11:30 AM 57.2 °F - 42.8 °F 59% 30.18 in - Calm Calm - N/A   Clear
12:00 PM 62.6 °F - 41.0 °F 45% 30.18 in - Calm Calm - N/A   Clear
12:30 PM 62.6 °F - 41.0 °F 45% 30.18 in - Calm Calm - N/A   Clear
1:00 PM 66.2 °F - 42.8 °F 43% 30.18 in - Calm Calm - N/A   Clear
2:00 PM 64.4 °F - 44.6 °F 49% 30.18 in - Calm Calm - N/A   Clear
2:30 PM 64.4 °F - 44.6 °F 49% 30.18 in - Calm Calm - N/A   Clear
3:00 PM 66.2 °F - 46.4 °F 49% 30.18 in - Calm Calm - N/A   Clear
3:30 PM 66.2 °F - 46.4 °F 49% 30.21 in - Calm Calm - N/A   Clear
4:00 PM 62.6 °F - 48.2 °F 59% 30.21 in - Calm Calm - N/A   Clear
4:30 PM 62.6 °F - 48.2 °F 59% 30.21 in - Calm Calm - N/A   Clear
5:00 PM 59.0 °F - 51.8 °F 77% 30.21 in - Calm Calm - N/A   Clear
5:30 PM 59.0 °F - 51.8 °F 77% 30.21 in - Calm Calm - N/A   Clear
6:00 PM 57.2 °F - 53.6 °F 88% 30.21 in - Calm Calm - N/A   Clear
6:30 PM 57.2 °F - 53.6 °F 88% 30.21 in - Calm Calm - N/A   Clear
7:00 PM 55.4 °F - 51.8 °F 88% 30.21 in - Calm Calm - N/A   Clear
7:30 PM 55.4 °F - 51.8 °F 88% 30.24 in - Calm Calm - N/A   Clear
8:00 PM 53.6 °F - 50.0 °F 88% 30.24 in - Calm Calm - N/A   Clear
8:30 PM 53.6 °F - 50.0 °F 88% 30.24 in - Calm Calm - N/A   Clear
9:00 PM 51.8 °F - 50.0 °F 94% 30.24 in - Calm Calm - N/A   Clear
9:30 PM 51.8 °F - 50.0 °F 94% 30.24 in - Calm Calm - N/A   Clear
10:00 PM 51.8 °F - 50.0 °F 94% 30.27 in - North 9.2 mph - N/A   Clear
10:30 PM 51.8 °F - 50.0 °F 94% 30.27 in - North 6.9 mph - N/A   Clear
11:00 PM 50.0 °F - 48.2 °F 94% 30.27 in - NNE 6.9 mph - N/A   Clear
11:30 PM 50.0 °F - 48.2 °F 94% 30.27 in - North 5.8 mph - N/A   Clear